STARLINK-31949, 59891

Orbit data source: Space-Track

STARLINK-31949, 59891 is a payload satellite owned by SpaceX/Seattle (US) in LEO that was launched on Tue, 28 May 2024 UTC via an FALCON 9 launch vehicle from the Air Force Eastern Test Range (AFETR). Payload-class satellites include a variety of spacecraft equipped with specific instruments for various scientific and technological missions. These include communications satellites like Starlink; space stations such as the ISS; scientific satellites like the Hubble; Earth observation satellites from companies like Planet Labs, Umbra, and HawkEye 360; GPS; miniature CubeSats for education and research; and military/defense satellites.

Loading next visibility...
Identifier
59891, 2024-100G
Orbit
LEO
Last TLE update
20 hours ago
Origin
Manufacturer
SpaceX/Seattle
Mission
Operational spacecraft
Bus & Motor
STARLINK V2M, Unknown motor
Mass
730 kg wet, ~700 kg dry
Launch date (UTC)
2024-05-28 (11 months ago)
Launch vehicle
FALCON 9
Launch site
Air Force Eastern Test Range (AFETR)
Object type
Payload
Rocket body
Debris
Shape & HBR
Unknown
Radar Cross Section
Large (>1 m²)

Expand to show TLE details & history

TLE from 20 hours ago
0 STARLINK-31949
1 59891U 24100G   25128.50598496  .00001038  00000-0  47223-4 0  9997
2 59891  43.0043  48.8537 0000838 267.7659  92.3097 15.27577385 54373
Epoch: 2025-05-08T12:08Z
Definitive object data (Epoch: 2025-05-08T12:08:37.1Z)
Latitude
-0°
Longitude
0.1236°
Altitude
482.856 km
Speed
7.626 km/s
True Right ascension
03h 15m 24s
True Declination
0° 00' 00"
Sunlit
Object was in daylight at TLE epoch
Visualization TLE readout
Latitude
0.32389°
Longitude
175.1613°
Altitude
482.821 km
Speed
7.626 km/s
Apparent Right ascension
12h 54m 00s
Apparent Declination
-58° 36' 06"
Sunlit
Object is in full shadow
Visualization observer readout
Local Sidereal Time
15:54:27
Azimuth
202.512° SW
Elevation
-15.409°
Doppler factor
1
Orbital elements
Apogee altitude
485.577 km
Perigee altitude
484.426 km
Semi-major axis
6,863.138 km
Eccentricity
0.0000838
Inclination
43.0043°
RAAN
48.8537°
Arg. of periapsis
267.7659°
True anomaly
92.31929°
Mean anomaly
92.3097°
Eccentric anomaly
92.3145°
Mean motion
3.81732 °/min
BSTAR
0.000047223
Orbital period
94.31 mins
Loading maneuver chart data...
Loading SW <> Apogee altitude chart data...
Loading historical data...
Loading historical data...
Loading historical data...
Loading historical data...
Loading historical data...
Loading historical data...
Loading historical data...

STARLINK-31949 Visibility forecast

Observer location: undefined°, undefined°

Span
Click to sort rows by Start time (UTC) header in descending order
Start Az.
Max El. time (UTC)
Max El. Az.
Max El.
End time (UTC)
End Az.
6 mins2025-05-09 21:17:24.506Z204.485° SW2025-05-09 21:20:24.506Z143.613° SSE25.009°2025-05-09 21:23:24.506Z88.578° E
6 mins2025-05-09 22:56:24.506Z257.89° W2025-05-09 22:59:24.506Z46.128° ENE42.748°2025-05-09 23:02:24.506Z70.812° E
5 mins2025-05-10 00:36:24.506Z297.151° NW2025-05-10 00:38:24.506Z16.462° NNE37.671°2025-05-10 00:41:24.506Z77.421° E
5 mins2025-05-10 02:15:24.506Z287.095° WNW2025-05-10 02:17:24.506Z140.865° SSE44.831°2025-05-10 02:20:24.506Z110.944° ESE
4 mins2025-05-10 03:54:24.506Z247.629° W2025-05-10 03:56:24.506Z203.432° SW19.563°2025-05-10 03:58:24.506Z168.498° S
|